This demonstration page uses our WeatherBlox Daily Observations layout. Learn more.

Left ArrowRight Arrow

41.12389, -100.76542

Hourly Observations for July 25, 2022

Temp ( °F °C ) Dew Point ( °F °C ) Humidity (%) Winds ( mph kmh ) Pressure ( in mb ) Visibility ( mi km ) Precip ( " mm )
12:53 am 00:53 Clear 72 22.2 64 17.8 76 76 E 10 17 30.00 1016 10 16 0.00 0.00
1:53 am 01:53 Mostly Clear 71 21.7 63 17.2 76 76 SE 7 11 30.01 1016 10 16 0.00 0.00
2:53 am 02:53 Mostly Cloudy 70 21.1 64 17.8 82 82 E 6 9 30.00 1016 10 16 0.00 0.00
3:53 am 03:53 Mostly Cloudy 70 21.1 62 16.7 76 76 E 5 7 30.00 1016 10 16 0.00 0.00
4:53 am 04:53 Cloudy with Light Rain 68 20 63 17.2 84 84 E 7 11 29.99 1016 10 16 0.01 0.25
5:51 am 05:51 Cloudy with Light Rain 66 19 64 18 94 94 E 5 7 29.99 1016 8 13 0.15 3.81
5:52 am 05:52 Cloudy with Light Rain 67 19.4 64 17.8 91 91 E 5 7 30.00 1016 8 13 0.15 3.81
6:03 am 06:03 Cloudy with Light Rain 67 19.4 64 17.8 91 91 E 6 9 29.99 1015 10 16 0.01 0.25
6:12 am 06:12 Cloudy with Light Rain 67 19.4 64 17.8 91 91 E 5 7 29.98 1015 10 16 0.01 0.25
6:21 am 06:21 Cloudy 67 19.4 64 17.8 91 91 E 6 9 29.98 1015 10 16 0.01 0.25
6:53 am 06:53 Cloudy 67 19.4 64 17.8 91 91 E 8 13 30.00 1016 10 16 0.01 0.25
7:00 am 07:00 Cloudy 67 19.4 64 17.8 91 91 E 7 11 29.98 1015 10 16 0.00 0.00
7:05 am 07:05 Cloudy 67 19.4 64 17.8 91 91 E 9 15 29.98 1015 10 16 0.00 0.00
7:53 am 07:53 Cloudy with Light Rain 66 18.9 63 17.2 90 90 E 16 26 29.99 1016 4 6 0.00 0.00
8:05 am 08:05 Cloudy with Light Rain 66 18.9 63 17.2 90 90 ESE 14 22 29.97 1015 9 14 0.00 0.00
8:53 am 08:53 Cloudy with Light Rain 65 18.3 63 17.2 93 93 ESE 10 17 30.01 1016 3 4 0.01 0.25
9:01 am 09:01 Cloudy with Light Rain 65 18.3 63 17.2 93 93 ESE 13 20 29.99 1015 4 6 0.01 0.25
9:10 am 09:10 Cloudy with Light Rain 65 18.3 63 17.2 93 93 ESE 14 22 30.00 1016 5 8 0.01 0.25
9:28 am 09:28 Cloudy with Light Rain 66 18.9 63 17.2 90 90 ESE 9 15 29.99 1016 4 6 0.01 0.25
9:49 am 09:49 Cloudy with Light Rain 66 19 64 18 94 94 ESE 8 13 29.99 1016 4 6 0.02 0.51
9:53 am 09:53 Cloudy with Light Rain 66 18.9 64 17.8 93 93 ESE 9 15 30.02 1017 3 5 0.02 0.51
10:02 am 10:02 Cloudy with Light Rain 66 18.9 64 17.8 93 93 ESE 9 15 29.99 1016 3 4 0.01 0.25
10:24 am 10:24 Cloudy with Light Rain 67 19.4 64 17.8 91 91 ESE 9 15 29.99 1015 3 5 0.02 0.51
10:53 am 10:53 Cloudy with Light Rain 68 20 65 18.3 90 90 ESE 7 11 30.02 1017 6 10 0.03 0.76
11:14 am 11:14 Cloudy with Light Rain 67 19.4 65 18.3 93 93 E 10 17 29.99 1015 4 6 0.00 0.00
11:27 am 11:27 Cloudy with Light Rain 67 19.4 64 17.8 91 91 ESE 9 15 29.99 1015 4 6 0.01 0.25
11:53 am 11:53 Cloudy with Light Rain 67 19.4 64 17.8 91 91 ESE 9 15 30.02 1017 6 10 0.02 0.51
12:21 pm 12:21 Cloudy 68 20 65 18.3 90 90 ESE 7 11 29.97 1015 10 16 0.00 0.00
12:40 pm 12:40 Cloudy 68 20 65 18.3 90 90 ESE 7 11 29.97 1015 10 16 0.00 0.00
12:53 pm 12:53 Cloudy 68 20 65 18.3 90 90 ESE 9 15 30.01 1016 10 16 0.00 0.00
1:31 pm 13:31 Cloudy with Light Rain 68 20 65 18.3 90 90 ESE 10 17 29.96 1015 8 13 0.00 0.00
1:53 pm 13:53 Cloudy with Light Rain 68 20 65 18.3 90 90 ESE 9 15 30.00 1016 6 10 0.00 0.00
2:12 pm 14:12 Cloudy with Light Rain 68 20 66 18.9 93 93 ESE 8 13 29.95 1014 8 13 0.00 0.00
2:53 pm 14:53 Cloudy 70 21.1 67 19.4 90 90 SSE 8 13 29.98 1015 10 16 0.01 0.25
3:08 pm 15:08 Cloudy 70 21.1 66 18.9 87 87 S 8 13 29.93 1014 10 16 0.00 0.00
3:21 pm 15:21 Cloudy 70 21.1 66 18.9 87 87 SSE 7 11 29.93 1014 10 16 0.00 0.00
3:53 pm 15:53 Cloudy 70 21.1 66 18.9 87 87 SE 7 11 29.98 1015 10 16 0.00 0.00
4:04 pm 16:04 Cloudy 69 20.6 66 18.9 90 90 SSE 7 11 29.93 1014 8 13 0.00 0.00
4:27 pm 16:27 Cloudy 69 20.6 66 18.9 90 90 SSE 8 13 29.93 1013 9 14 0.00 0.00
4:38 pm 16:38 Cloudy 69 20.6 66 18.9 90 90 SSE 7 11 29.93 1013 9 14 0.00 0.00
4:53 pm 16:53 Cloudy 70 21.1 66 18.9 87 87 SSE 9 15 29.97 1015 10 16 0.00 0.00
5:45 pm 17:45 Cloudy 70 21.1 66 18.9 87 87 SE 10 17 29.89 1012 10 16 0.00 0.00
5:53 pm 17:53 Cloudy 70 21.1 66 18.9 87 87 SE 8 13 29.95 1014 10 16 0.00 0.00
6:14 pm 18:14 Cloudy 68 20 65 18.3 90 90 E 10 17 29.90 1013 10 16 0.00 0.00
6:23 pm 18:23 Cloudy 68 20 65 18.3 90 90 ESE 10 17 29.90 1013 10 16 0.00 0.00
6:53 pm 18:53 Cloudy 68 20 65 18.3 90 90 ESE 10 17 29.93 1014 10 16 0.00 0.00
7:33 pm 19:33 Cloudy 67 19.4 64 17.8 91 91 E 13 20 29.90 1012 10 16 0.00 0.00
7:53 pm 19:53 Cloudy 67 19.4 64 17.8 91 91 ESE 13 20 29.95 1014 10 16 0.00 0.00
8:53 pm 20:53 Cloudy 67 19.4 64 17.8 91 91 ESE 12 19 29.95 1014 10 16 0.00 0.00
9:09 pm 21:09 Cloudy 67 19.4 64 17.8 91 91 ESE 9 15 29.90 1012 10 16 0.00 0.00
9:53 pm 21:53 Cloudy 66 18.9 64 17.8 93 93 ESE 10 17 29.96 1014 10 16 0.00 0.00
10:18 pm 22:18 Cloudy 66 18.9 63 17.2 90 90 SE 14 22 29.91 1013 10 16 0.00 0.00
10:44 pm 22:44 Cloudy 66 18.9 63 17.2 90 90 SE 13 20 29.91 1013 10 16 0.00 0.00
10:53 pm 22:53 Cloudy 66 18.9 63 17.2 90 90 SE 12 19 29.94 1014 10 16 0.00 0.00
11:53 pm 23:53 Cloudy 66 18.9 64 17.8 93 93 ESE 9 15 29.95 1014 8 13 0.00 0.00

Powered by AerisWeather